Madison, SD

4:28 AM CDT on October 01, 2016 (GMT -0500)
Madison Municipal

Weather History for KMDS - January, 2014

Change the Weather History Date:

Thursday, January 30, 2014

  Actual Average Record
Temperature  
Mean Temperature 11 °F -  
Max Temperature 26 °F 25 °F 50 °F (2012)
Min Temperature -4 °F 3 °F -7 °F (2011)
Degree Days  
Heating Degree Days 54    
Moisture  
Dew Point 8 °F    
Average Humidity 92    
Maximum Humidity 100    
Minimum Humidity 74    
Precipitation  
Precipitation 2.19 in - - ()
Sea Level Pressure  
Sea Level Pressure 29.72 in    
Wind  
Wind Speed 17 mph (North)    
Max Wind Speed 28 mph    
Max Gust Speed 34 mph    
Visibility 8 miles    
Events Rain , Snow    
Averages and records for this station are not official NWS values.
T = Trace of Precipitation, MM = Missing Value Source: NWS Daily Summary

Daily Weather History Graph

Daily Weather History Graph

Search for Another Location

Airport or City:

Trip Planner

Search our weather history database for the weather conditions in past years. The results will help you decide how hot, cold, wet, or windy it might be!

Date:

Astronomy

Jan. 30, 2014 Rise Set
Actual Time 7:47 AM CST 5:35 PM CST
Civil Twilight 7:17 AM CST 6:06 PM CST
Nautical Twilight 6:42 AM CST 6:41 PM CST
Astronomical Twilight 6:08 AM CST 7:15 PM CST
Moon 7:13 AM CST (1/30) 5:51 PM CST (1/30)
Length of Visible Light 10h 49m
Length of Day
9h 48m
Waning Crescent, 0% of the Moon is Illuminated
Jan 30
Waning Crescent
Jan 30
New
Feb 6
First Quarter
Feb 14
Full
Feb 22
Last Quarter

Hourly Weather History & Observations

Time (CST) Temp. Windchill Dew Point Humidity Pressure Visibility Wind Dir Wind Speed Gust Speed Precip Events Conditions
12:05 AM 26.6 °F 15.7 °F 19.4 °F 74% 29.39 in 10.0 mi ENE 12.7 mph - N/A   Overcast
12:25 AM 26.6 °F 16.8 °F 19.4 °F 74% 29.38 in 10.0 mi East 10.4 mph - N/A   Overcast
12:45 AM 26.6 °F 15.7 °F 21.2 °F 80% 29.38 in 10.0 mi ENE 12.7 mph - N/A   Overcast
1:05 AM 26.6 °F 15.7 °F 19.4 °F 74% 29.37 in 10.0 mi ENE 12.7 mph - N/A   Overcast
1:25 AM 26.6 °F 15.7 °F 19.4 °F 74% 29.36 in 10.0 mi ENE 12.7 mph - N/A   Overcast
1:45 AM 24.8 °F 10.7 °F 23.0 °F 93% 29.35 in 10.0 mi ENE 19.6 mph - N/A   Overcast
2:05 AM 23.0 °F 8.3 °F 23.0 °F 100% 29.35 in 5.0 mi East 19.6 mph - N/A Snow Light Snow
2:25 AM 23.0 °F 9.2 °F 23.0 °F 100% 29.35 in 2.0 mi ENE 17.3 mph 21.9 mph 0.10 in Snow Light Snow
2:45 AM 21.2 °F 8.3 °F 21.2 °F 100% 29.37 in 1.2 mi ENE 13.8 mph 20.7 mph 0.53 in Snow Light Snow
3:05 AM 19.4 °F 4.5 °F 19.4 °F 100% 29.36 in 1.2 mi ENE 17.3 mph 23.0 mph 0.06 in Snow Light Snow
3:25 AM 17.6 °F 1.7 °F 17.6 °F 100% 29.36 in 1.5 mi NE 18.4 mph 24.2 mph 0.22 in Snow Light Snow
3:45 AM 17.6 °F 1.3 °F 17.6 °F 100% 29.37 in 1.5 mi NE 19.6 mph 26.5 mph 0.36 in Snow Light Snow
4:05 AM 15.8 °F -2.3 °F 15.8 °F 100% 29.36 in 1.5 mi ENE 23.0 mph 29.9 mph N/A Snow Light Snow
4:25 AM 15.8 °F -1.9 °F 15.8 °F 100% 29.37 in 1.0 mi NE 21.9 mph 27.6 mph 0.14 in Snow Light Snow
4:45 AM 15.8 °F -2.3 °F 15.8 °F 100% 29.39 in 0.8 mi NE 23.0 mph 31.1 mph 0.29 in Snow Light Snow
5:05 AM 14.0 °F -2.5 °F 14.0 °F 100% 29.40 in 0.8 mi NE 17.3 mph - 0.06 in Snow Light Snow
5:25 AM 14.0 °F -5.1 °F 14.0 °F 100% 29.43 in 0.8 mi NNE 24.2 mph 29.9 mph 0.30 in Snow Light Snow
5:45 AM 14.0 °F -5.5 °F 14.0 °F 100% 29.45 in - NNE 25.3 mph 29.9 mph 0.50 in Snow Heavy Snow
6:05 AM 14.0 °F -5.8 °F 14.0 °F 100% 29.46 in 0.8 mi NNE 26.5 mph 32.2 mph 0.05 in Snow Light Snow
6:25 AM 14.0 °F -4.7 °F 14.0 °F 100% 29.48 in 0.8 mi NNE 23.0 mph 31.1 mph 0.29 in Snow Light Snow
6:45 AM 14.0 °F -6.2 °F 14.0 °F 100% 29.50 in 1.8 mi NNE 27.6 mph 33.4 mph 0.41 in Rain Light Freezing Rain
7:05 AM 14.0 °F -5.8 °F 14.0 °F 100% 29.53 in 1.5 mi NNE 26.5 mph 34.5 mph 0.01 in Snow Light Snow
7:25 AM 14.0 °F -5.8 °F 14.0 °F 100% 29.55 in 1.5 mi NNE 26.5 mph 34.5 mph 0.06 in Snow Light Snow
7:45 AM 12.2 °F -6.7 °F 12.2 °F 100% 29.57 in 1.8 mi North 21.9 mph 26.5 mph 0.06 in Snow Light Snow
8:05 AM 12.2 °F -7.9 °F 12.2 °F 100% 29.59 in - North 25.3 mph 32.2 mph N/A Snow Heavy Snow
8:25 AM 10.4 °F -10.7 °F 10.4 °F 100% 29.62 in - North 26.5 mph 33.4 mph 0.03 in Snow Heavy Snow
8:45 AM 12.2 °F -8.2 °F 12.2 °F 100% 29.65 in - North 26.5 mph 34.5 mph 0.04 in Snow Heavy Snow
9:05 AM 10.4 °F -10.3 °F 10.4 °F 100% 29.67 in 5.0 mi North 25.3 mph 32.2 mph N/A Snow Light Snow
9:25 AM 12.2 °F -7.9 °F 12.2 °F 100% 29.68 in 10.0 mi NNW 25.3 mph 29.9 mph N/A Snow Light Snow
9:45 AM 12.2 °F -6.3 °F 10.4 °F 92% 29.71 in 10.0 mi NNW 20.7 mph 28.8 mph N/A Snow Light Snow
10:05 AM 10.4 °F -8.6 °F 10.4 °F 100% 29.72 in 10.0 mi North 20.7 mph 28.8 mph N/A Snow Light Snow
10:25 AM 10.4 °F -9.5 °F 8.6 °F 92% 29.73 in 10.0 mi North 23.0 mph 29.9 mph N/A Snow Light Snow
10:45 AM 10.4 °F -8.6 °F 8.6 °F 92% 29.74 in 10.0 mi North 20.7 mph 26.5 mph N/A Snow Light Snow
11:05 AM 8.6 °F -11.0 °F 6.8 °F 92% 29.76 in 10.0 mi North 20.7 mph 29.9 mph N/A   Scattered Clouds
11:25 AM 8.6 °F -11.0 °F 6.8 °F 92% 29.77 in 10.0 mi NNW 20.7 mph 26.5 mph N/A   Mostly Cloudy
11:45 AM 8.6 °F -10.0 °F 6.8 °F 92% 29.79 in 10.0 mi NNW 18.4 mph 24.2 mph N/A   Mostly Cloudy
12:05 PM 8.6 °F -10.5 °F 6.8 °F 92% 29.80 in 10.0 mi NNW 19.6 mph 24.2 mph N/A Snow Light Snow
12:25 PM 8.6 °F -10.0 °F 6.8 °F 92% 29.81 in 10.0 mi NNW 18.4 mph 23.0 mph N/A Snow Light Snow
12:45 PM 8.6 °F -10.0 °F 5.0 °F 85% 29.81 in 10.0 mi NNW 18.4 mph - N/A   Overcast
1:05 PM 8.6 °F -10.0 °F 5.0 °F 85% 29.82 in 10.0 mi NNW 18.4 mph 24.2 mph N/A Rain Light Freezing Rain
1:25 PM 8.6 °F -10.0 °F 5.0 °F 85% 29.83 in 10.0 mi NNW 18.4 mph - N/A Snow Light Snow
1:45 PM 8.6 °F -8.9 °F 5.0 °F 85% 29.83 in 10.0 mi NNW 16.1 mph - N/A   Overcast
2:05 PM 8.6 °F -9.5 °F 5.0 °F 85% 29.83 in 10.0 mi NNW 17.3 mph - N/A   Overcast
2:25 PM 6.8 °F -12.9 °F 3.2 °F 85% 29.84 in 10.0 mi NNW 19.6 mph 23.0 mph N/A   Mostly Cloudy
2:45 PM 6.8 °F -11.3 °F 3.2 °F 85% 29.84 in 10.0 mi NNW 16.1 mph - N/A   Scattered Clouds
3:05 PM 6.8 °F -11.3 °F 3.2 °F 85% 29.85 in 10.0 mi NNW 16.1 mph - N/A   Scattered Clouds
3:25 PM 6.8 °F -12.4 °F 3.2 °F 85% 29.85 in 10.0 mi NNW 18.4 mph - N/A   Scattered Clouds
3:45 PM 6.8 °F -12.4 °F 3.2 °F 85% 29.86 in 10.0 mi NNW 18.4 mph - N/A   Mostly Cloudy
4:05 PM 6.8 °F -10.7 °F 3.2 °F 85% 29.88 in 10.0 mi NNW 15.0 mph - N/A   Mostly Cloudy
4:25 PM 6.8 °F -10.7 °F 3.2 °F 85% 29.89 in 10.0 mi NNW 15.0 mph - N/A   Mostly Cloudy
4:45 PM 6.8 °F -10.0 °F 3.2 °F 85% 29.90 in 10.0 mi NNW 13.8 mph - N/A   Scattered Clouds
5:05 PM 5.0 °F -12.3 °F 1.4 °F 85% 29.90 in 10.0 mi NNW 13.8 mph - N/A   Clear
5:25 PM 5.0 °F -10.0 °F 1.4 °F 85% 29.91 in 10.0 mi NNW 10.4 mph - N/A   Clear
5:45 PM 3.2 °F -11.3 °F 1.4 °F 92% 29.91 in 10.0 mi NNW 9.2 mph - N/A   Clear
6:05 PM 1.4 °F -14.5 °F 1.4 °F 100% 29.91 in 10.0 mi NNW 10.4 mph - N/A   Clear
6:25 PM 1.4 °F - -0.4 °F 92% 29.92 in 10.0 mi North - - N/A   Clear
6:45 PM 1.4 °F -14.5 °F -0.4 °F 92% 29.93 in 10.0 mi NW 10.4 mph - N/A   Clear
7:05 PM 1.4 °F -15.3 °F -0.4 °F 92% 29.95 in 10.0 mi NW 11.5 mph - N/A   Clear
7:25 PM 1.4 °F -14.5 °F -0.4 °F 92% 29.96 in 10.0 mi NW 10.4 mph - N/A   Clear
7:45 PM 1.4 °F -14.5 °F -0.4 °F 92% 29.98 in 10.0 mi NW 10.4 mph - N/A   Clear
8:05 PM 1.4 °F -13.5 °F -0.4 °F 92% 29.99 in 10.0 mi NW 9.2 mph - N/A   Clear
8:25 PM -0.4 °F -14.7 °F -2.2 °F 92% 30.00 in 10.0 mi NW 8.1 mph - N/A   Clear
8:45 PM -0.4 °F -13.4 °F -2.2 °F 92% 30.00 in 10.0 mi WNW 6.9 mph - N/A   Clear
9:05 PM -0.4 °F -13.4 °F -2.2 °F 92% 30.02 in 10.0 mi WNW 6.9 mph - N/A   Clear
9:25 PM -0.4 °F -12.0 °F -2.2 °F 92% 30.01 in 10.0 mi WNW 5.8 mph - N/A   Clear
9:45 PM -0.4 °F -10.4 °F -2.2 °F 92% 30.02 in 10.0 mi WNW 4.6 mph - N/A   Clear
10:05 PM -0.4 °F -8.3 °F -2.2 °F 92% 30.04 in 10.0 mi West 3.5 mph - N/A   Clear
10:25 PM -2.2 °F -12.5 °F -4.0 °F 92% 30.03 in 10.0 mi NW 4.6 mph - N/A   Clear
10:45 PM -4.0 °F -14.6 °F -4.0 °F 100% 30.03 in 10.0 mi West 4.6 mph - N/A   Clear
11:05 PM -2.2 °F -10.4 °F -2.2 °F 100% 30.04 in 10.0 mi WNW 3.5 mph - N/A   Clear
11:25 PM -2.2 °F -15.6 °F -4.0 °F 92% 30.03 in 10.0 mi NW 6.9 mph - N/A   Clear
11:45 PM -2.2 °F -15.6 °F -4.0 °F 92% 30.02 in 10.0 mi NNW 6.9 mph - N/A   Clear